User: anonymous   Login
Location: Roland
(31.1349°N, 85.4372°W)
Time: 00:07:42
(UTC+00:00)
Language:

Vanguard 1 Rocket - Orbit

View from above orbital plane
View from above orbital plane
View from above satellite
View from above satellite

Ground track
Ground track

The orbit data is extracted from the following two-line orbital elements,

1    16U 58002A   21334.52366780  .00000151  00000-0  19685-3 0  9991
2    16  34.2752  61.2601 2028165 316.9032  28.9138 10.48785973514582
Epoch (UTC): 30 November 2021 12:34:04
Eccentricity: 0.2028165
inclination: 34.2752°
perigee height: 650 km
apogee height: 4226 km
right ascension of ascending node: 61.2601°
argument of perigee: 316.9032°
revolutions per day: 10.48785973
mean anomaly at epoch: 28.9138°
orbit number at epoch: 51458

The dashed part of the orbit path shows where the satellite is in the earth's shadow,  

DLR